Home > Weather > Port-aux-Francais > Past weeks

Flag for French Southern Territories Past Weather in Port-aux-Francais, French Southern Territories — Yesterday and Last 2 Weeks

Now
33 °F

Chilly.


Feels Like: 25 °F
Forecast: 37 / 42 °F
Wind: 10 mph from Northwest

Location: Port-Aux-Francais Iles Kerguelen

Current Time: Jun 25, 2016 at 1:37:22 AM

Latest Report: Jun 25, 2016 at 1:00 AM


Visibility: N/A

Pressure: 29.63 "Hg

Humidity: 81%

Dew Point: 28 °F

Location of Port-aux-FrancaisLocation

Past Weather in Port-aux-Francais — Graph

°F

Port-aux-Francais Temperature Yesterday

Maximum temperature yesterday: 42 °F (at 12:00 PM)
Minimum temperature yesterday: 35 °F (at 11:00 PM)
Average temperature yesterday: 38 °F

High & Low Weather Summary for the Past Weeks

 TemperatureHumidityPressure
High53 °F (Jun 19, 10:00 AM)97% (Jun 12, 7:00 PM)30.65 "Hg (Jun 12, 7:00 PM)
Low26 °F (Jun 14, 6:00 AM)47% (Jun 12, 8:00 AM)28.97 "Hg (Jun 12, 9:00 PM)
Average39 °F81%29.93 "Hg
* Reported Jun 10 12:00 AM — Jun 25 12:00 AM, Port-aux-Francais, Weather by CustomWeather, © 2016

Note: Actual official high and low records may vary slightly from our data, if they occured in-between our weather recording intervals... More about our weather records

Advertising

Port-aux-Francais Weather History for the Previous 24 Hours

Scroll right to see more
 ConditionsComfort  
Time TempWeatherWind HumidityBarometerVisibility
12:00 AM
Sat, Jun 25
36 °FChilly.17 mph74%29.63 "HgN/A
11:00 PM
Fri, Jun 24
35 °FChilly.20 mph74%29.62 "HgN/A
10:00 PM35 °FChilly.17 mph74%29.63 "HgN/A
9:00 PM36 °FChilly.20 mph74%29.64 "HgN/A
6:00 PM36 °FChilly.23 mph73%29.61 "HgN/A
5:00 PM37 °FChilly.23 mph73%29.60 "HgN/A
4:00 PM39 °FChilly.25 mph72%29.58 "HgN/A
3:00 PM40 °FQuite cool.28 mph67%29.57 "HgN/A
2:00 PM41 °FPassing clouds.33 mph67%29.55 "Hg22 mi
1:00 PM41 °FQuite cool.28 mph72%29.55 "HgN/A
12:00 PM42 °FQuite cool.16 mph71%29.57 "HgN/A
11:00 AM40 °FPassing clouds.13 mph76%29.59 "Hg22 mi
10:00 AM39 °FChilly.25 mph76%29.57 "HgN/A
9:00 AM38 °FChilly.14 mph77%29.60 "HgN/A
8:00 AM38 °FPassing clouds.17 mph75%29.61 "Hg16 mi
6:00 AM37 °FChilly.15 mph73%29.65 "HgN/A
5:00 AM37 °FChilly.18 mph73%29.66 "HgN/A
4:00 AM37 °FChilly.18 mph76%29.67 "HgN/A
3:00 AM37 °FChilly.28 mph75%29.70 "HgN/A
2:00 AM37 °FChilly.23 mph75%29.72 "HgN/A
1:00 AM37 °FChilly.21 mph72%29.75 "HgN/A
Weather by CustomWeather, © 2016

See weather overviewHow to use our weather pages